Location: Demmingen
(48.6757°N, 10.4375°E)
Time: 04:28:54
(UTC+00:00)

CZ-2C R/B - Pass Details

Date: 14 August 2024
Orbit: 782 x 869 km, 98.3° (Epoch: 08 September)

Event Time Altitude Azimuth Distance (km) Brightness Sun altitude
Exits shadow 23:13:32 - 94° (E) 2,700 5.2 -27.3°
Reaches altitude 10° 23:14:33 10° 86° (E) 2,463 5.1 -27.3°
Maximum altitude 23:17:27 15° 54° (NE) 2,128 5.1 -27.3°
Drops below altitude 10° 23:20:19 10° 21° (NNE) 2,439 5.9 -27.4°
Sets 23:23:40 0° 359° (N) 3,358 7.1 -27.4°
